Location: Unspecified
(0.0000°N, 0.0000°E)
Time: 16:54:17
(UTC+00:00)

AO-73 - Pass Details

Date: 26 September 2021
Orbit: 580 x 662 km, 97.6° (Epoch: 22 October)

Event Time Altitude Azimuth Distance (km) Brightness Sun altitude
Rises 04:02:04 0° 19° (NNE) 2,789 ? -27.3°
Reaches altitude 10° 04:04:15 10° 24° (NNE) 1,888 ? -26.8°
Maximum altitude 04:08:15 54° 101° (ESE) 707 ? -25.8°
Drops below altitude 10° 04:12:15 10° 179° (S) 1,897 ? -24.8°
Sets 04:14:27 0° 183° (S) 2,803 ? -24.2°
